International Skating Union - Official Site

ISU World Cup Speed Skating Salt lake City
December 8-11, 2017

Draw | Lap Times | Index | World Cup

Referee: Susan  SANDVIG-SHOBE  (USA)
Starter: Darrell  HAACK  (CAN)
StartTime: EndTime: Air Temp: Ice Temp: Humidity:
13:55 14:32 15.2℃ -8.7℃ 21%
Result 3000m Ladies Division A
Rankings as of Dec 10 2017 2:39PM
Rank: No.: Name: Nation: Time: Behind: Points:
1 297 Natalia  Voronina RUS RUS 3:57.70200m - 19.71 - (19.7)
600m - 50.01 - (30.3)
1000m - 1:20.62 - (30.6)
1400m - 1:51.56 - (30.9)
1800m - 2:22.81 - (31.2)
2200m - 2:54.45 - (31.6)
2600m - 3:26.39 - (31.9)
3000m - 3:57.70 - (31.3)
100
2 232 Martina  Sáblíková CZE CZE 3:57.84200m - 20.24 - (20.2)
600m - 50.89 - (30.6)
1000m - 1:21.81 - (30.9)
1400m - 1:52.89 - (31.0)
1800m - 2:24.02 - (31.1)
2200m - 2:54.95 - (30.9)
2600m - 3:26.23 - (31.2)
3000m - 3:57.84 - (31.6)
0.14 80
3 242 Claudia  Pechstein GER GER 3:58.69200m - 20.59 - (20.5)
600m - 51.69 - (31.1)
1000m - 1:22.81 - (31.1)
1400m - 1:54.34 - (31.5)
1800m - 2:25.43 - (31.0)
2200m - 2:56.38 - (30.9)
2600m - 3:27.29 - (30.9)
3000m - 3:58.69 - (31.4)
0.99 70
4 208 Ivanie  Blondin CAN CAN 3:59.47200m - 20.42 - (20.4)
600m - 51.38 - (30.9)
1000m - 1:22.94 - (31.5)
1400m - 1:54.14 - (31.2)
1800m - 2:25.45 - (31.3)
2200m - 2:56.52 - (31.0)
2600m - 3:27.90 - (31.3)
3000m - 3:59.47 - (31.5)
1.77 60
5 298 Anna  Yurakova RUS RUS 4:00.55200m - 20.83 - (20.8)
600m - 51.45 - (30.6)
1000m - 1:22.57 - (31.1)
1400m - 1:53.69 - (31.1)
1800m - 2:24.85 - (31.1)
2200m - 2:56.27 - (31.4)
2600m - 3:28.11 - (31.8)
3000m - 4:00.55 - (32.4)
2.85 50
6 207 Marina  Zueva BLR BLR 4:02.32200m - 20.32 - (20.3)
600m - 51.42 - (31.1)
1000m - 1:22.55 - (31.1)
1400m - 1:54.07 - (31.5)
1800m - 2:25.91 - (31.8)
2200m - 2:57.86 - (31.9)
2600m - 3:29.84 - (31.9)
3000m - 4:02.32 - (32.4)
4.62 45
7 217 Isabelle  Weidemann CAN CAN 4:02.36200m - 21.08 - (21.0)
600m - 52.78 - (31.7)
1000m - 1:24.67 - (31.8)
1400m - 1:56.32 - (31.6)
1800m - 2:27.56 - (31.2)
2200m - 2:59.23 - (31.6)
2600m - 3:30.63 - (31.4)
3000m - 4:02.36 - (31.7)
4.66 40
8 256 Nana  Takagi JPN JPN 4:03.25200m - 20.00 - (20.0)
600m - 51.13 - (31.1)
1000m - 1:22.92 - (31.7)
1400m - 1:54.66 - (31.7)
1800m - 2:26.54 - (31.8)
2200m - 2:58.44 - (31.9)
2600m - 3:30.68 - (32.2)
3000m - 4:03.25 - (32.5)
5.55 35
9 277 Melissa  Wijfje NED NED 4:03.89200m - 20.22 - (20.2)
600m - 51.52 - (31.3)
1000m - 1:23.46 - (31.9)
1400m - 1:55.44 - (31.9)
1800m - 2:27.57 - (32.1)
2200m - 2:59.49 - (31.9)
2600m - 3:31.56 - (32.0)
3000m - 4:03.89 - (32.3)
6.19 30
10 216 Brianne  Tutt CAN CAN 4:04.15200m - 20.36 - (20.3)
600m - 51.32 - (30.9)
1000m - 1:22.44 - (31.1)
1400m - 1:53.89 - (31.4)
1800m - 2:25.78 - (31.8)
2200m - 2:58.05 - (32.2)
2600m - 3:30.90 - (32.8)
3000m - 4:04.15 - (33.2)
6.45 25
11 292 Olga  Graf RUS RUS 4:04.82200m - 20.79 - (20.7)
600m - 51.44 - (30.6)
1000m - 1:22.77 - (31.3)
1400m - 1:54.60 - (31.8)
1800m - 2:26.63 - (32.0)
2200m - 2:59.12 - (32.4)
2600m - 3:31.90 - (32.7)
3000m - 4:04.82 - (32.9)
7.12 21
12 307 Mia  Manganello USA USA 4:05.27200m - 20.43 - (20.4)
600m - 51.60 - (31.1)
1000m - 1:23.07 - (31.4)
1400m - 1:55.02 - (31.9)
1800m - 2:27.08 - (32.0)
2200m - 2:59.13 - (32.0)
2600m - 3:31.58 - (32.4)
3000m - 4:05.27 - (33.6)
7.57 18
13 246 Francesca  Lollobrigida ITA ITA 4:05.36200m - 20.02 - (20.0)
600m - 50.27 - (30.2)
1000m - 1:21.44 - (31.1)
1400m - 1:53.26 - (31.8)
1800m - 2:25.98 - (32.7)
2200m - 2:58.70 - (32.7)
2600m - 3:32.07 - (33.3)
3000m - 4:05.36 - (33.2)
7.66 16
14 309 Carlijn  Schoutens USA USA 4:05.54200m - 20.38 - (20.3)
600m - 51.34 - (30.9)
1000m - 1:22.68 - (31.3)
1400m - 1:54.29 - (31.6)
1800m - 2:26.38 - (32.0)
2200m - 2:58.97 - (32.5)
2600m - 3:32.17 - (33.2)
3000m - 4:05.54 - (33.3)
7.84 14
15 233 Nikola  Zdráhalova CZE CZE 4:06.88200m - 19.79 - (19.7)
600m - 51.15 - (31.3)
1000m - 1:22.72 - (31.5)
1400m - 1:55.07 - (32.3)
1800m - 2:27.43 - (32.3)
2200m - 3:00.40 - (32.9)
2600m - 3:33.66 - (33.2)
3000m - 4:06.88 - (33.2)
9.18 12
16 252 Fuyo  Matsuoka JPN JPN 4:07.53200m - 20.92 - (20.9)
600m - 51.82 - (30.9)
1000m - 1:23.18 - (31.3)
1400m - 1:55.18 - (32.0)
1800m - 2:27.62 - (32.4)
2200m - 3:00.26 - (32.6)
2600m - 3:33.51 - (33.2)
3000m - 4:07.53 - (34.0)
9.83 10